Location: Newark
(55.7083°N, 13.1992°E)
Time: 23:02:14
(UTC+00:00)

Envisat - Pass Details

Date: 10 October 2022
Orbit: 763 x 765 km, 98.2° (Epoch: 09 December)

Event Time Altitude Azimuth Distance (km) Brightness Sun altitude
Rises 04:32:54 0° 13° (NNE) 3,249 6.4 -8.5°
Reaches altitude 10° 04:35:17 10° 7° (N) 2,319 5.6 -8.1°
Maximum altitude 04:40:08 46° 296° (WNW) 1,034 3.3 -7.5°
Drops below altitude 10° 04:44:57 10° 224° (SW) 2,303 5.1 -6.8°
Sets 04:47:19 0° 219° (SW) 3,225 5.9 -6.5°
